Weather History for Rome, GA

Change the Weather History Date:

Wednesday, February 6, 2013

  Actual Average Record
Temperature  
Mean Temperature 50 °F 43 °F  
Max Temperature 66 °F 54 °F 73 °F (1999)
Min Temperature 35 °F 31 °F 18 °F (2007)
Degree Days  
Heating Degree Days 14 22  
Month to date heating degree days 137  
Since 1 July heating degree days 2179  
Moisture  
Dew Point 38 °F    
Average Humidity 82    
Maximum Humidity 100    
Minimum Humidity 30    
Precipitation  
Precipitation 0.00 in 0.16 in 1.78 in (2004)
Month to date precipitation 0.99  
Year to date precipitation 5.81  
Snow  
Snow 0.00 in - - ()
Month to date snowfall  
Since 1 July snowfall  
Snow Depth -    
Sea Level Pressure  
Sea Level Pressure 30.12 in    
Wind  
Wind Speed 0 mph (ENE)    
Max Wind Speed 5 mph    
Max Gust Speed -    
Visibility 5 miles    
Events Fog    
T = Trace of Precipitation, MM = Missing Value Source: NWS Daily Summary

Daily Weather History Graph

Daily Weather History Graph

Search for Another Location

Airport:

Trip Planner

Search our weather history database for the weather conditions in past years. The results will help you decide how hot, cold, wet, or windy it might be!

Date:

Astronomy

Feb. 06, 2013 Rise Set
Actual Time 7:34 AM EST 6:15 PM EST
Civil Twilight 7:08 AM EST 6:41 PM EST
Nautical Twilight 6:38 AM EST 7:11 PM EST
Astronomical Twilight 6:08 AM EST 7:41 PM EST
Moon 4:12 AM EST (2/6) 2:38 PM EST (2/6)
Length of Visible Light 11h 33m
Length of Day
10h 41m
Waning Crescent, 17% of the Moon is Illuminated
Feb 6
Waning Crescent
Feb 10
New
Feb 17
First Quarter
Feb 25
Full
Mar 4
Last Quarter

Hourly Weather History & Observations

Time (EST) Temp. Windchill Dew Point Humidity Pressure Visibility Wind Dir Wind Speed Gust Speed Precip Events Conditions
12:00 AM 37.4 °F - 37.4 °F 100% 30.05 in 3.0 mi Calm Calm - N/A   Partly Cloudy
12:09 AM 37.4 °F - 35.6 °F 93% 30.05 in 2.0 mi Calm Calm - N/A   Scattered Clouds
12:11 AM 37.4 °F - 35.6 °F 93% 30.05 in 2.5 mi Calm Calm - N/A   Mostly Cloudy
12:19 AM 37.4 °F - 37.4 °F 100% 30.05 in 7.0 mi Calm Calm - N/A   Mostly Cloudy
12:30 AM 37.4 °F - 35.6 °F 93% 30.05 in 1.2 mi Calm Calm - N/A   Overcast
12:35 AM 37.4 °F - 37.4 °F 100% 30.05 in 0.2 mi Calm Calm - N/A Fog Fog
12:53 AM 37.0 °F - 37.0 °F 100% 30.05 in 0.2 mi Calm Calm - N/A Fog Fog
1:53 AM 37.0 °F - 37.0 °F 100% 30.06 in 0.2 mi Calm Calm - N/A Fog Fog
2:04 AM 35.6 °F - 35.6 °F 100% 30.06 in 0.5 mi Calm Calm - N/A Fog Fog
2:33 AM 37.4 °F - 37.4 °F 100% 30.07 in 0.5 mi Calm Calm - N/A Fog Fog
2:53 AM 37.4 °F - 37.4 °F 100% 30.07 in 0.2 mi Calm Calm - N/A Fog Fog
3:18 AM 37.4 °F - 37.4 °F 100% 30.08 in 0.2 mi Calm Calm - N/A Fog Fog
3:53 AM 37.9 °F - 37.9 °F 100% 30.08 in 0.2 mi Calm Calm - N/A Fog Fog
4:53 AM 39.0 °F - 39.0 °F 100% 30.09 in 0.2 mi Calm Calm - N/A Fog Fog
5:53 AM 37.9 °F 35.5 °F 37.9 °F 100% 30.11 in 0.2 mi NE 3.5 mph - N/A Fog Fog
6:53 AM 37.9 °F 35.5 °F 37.9 °F 100% 30.13 in 0.2 mi NE 3.5 mph - N/A Fog Fog
7:53 AM 37.0 °F - 37.0 °F 100% 30.16 in 0.2 mi Calm Calm - N/A Fog Fog
8:53 AM 37.0 °F - 37.0 °F 100% 30.19 in 0.2 mi Calm Calm - N/A Fog Fog
9:53 AM 39.9 °F - 39.9 °F 100% 30.20 in 0.2 mi Calm Calm - N/A Fog Fog
10:17 AM 39.2 °F - 39.2 °F 100% 30.20 in 0.2 mi Calm Calm - N/A Fog Fog
10:53 AM 42.1 °F - 42.1 °F 100% 30.20 in 0.5 mi Calm Calm - N/A Fog Fog
11:10 AM 44.6 °F - 44.6 °F 100% 30.20 in 2.0 mi Calm Calm - N/A   Overcast
11:18 AM 44.6 °F - 42.8 °F 93% 30.20 in 9.0 mi Calm Calm - N/A   Mostly Cloudy
11:30 AM 46.4 °F - 44.6 °F 93% 30.20 in 10.0 mi Calm Calm - N/A   Scattered Clouds
11:53 AM 53.1 °F - 42.1 °F 66% 30.20 in 10.0 mi Calm Calm - N/A   Clear
12:53 PM 60.8 °F - 37.4 °F 42% 30.18 in 10.0 mi Calm Calm - N/A   Clear
1:53 PM 64.0 °F - 35.1 °F 34% 30.14 in 10.0 mi Calm Calm - N/A   Clear
2:53 PM 64.9 °F - 35.1 °F 33% 30.12 in 10.0 mi Calm Calm - N/A   Unknown
3:53 PM 64.9 °F - 35.1 °F 33% 30.12 in 10.0 mi SE 3.5 mph - N/A   Clear
4:53 PM 64.9 °F - 36.0 °F 34% 30.10 in 10.0 mi ESE 4.6 mph - N/A   Clear
5:53 PM 59.0 °F - 37.0 °F 44% 30.10 in 10.0 mi ENE 4.6 mph - N/A   Clear
6:53 PM 52.0 °F - 39.0 °F 61% 30.10 in 10.0 mi Calm Calm - N/A   Clear
7:53 PM 48.0 °F - 39.0 °F 71% 30.12 in 10.0 mi Calm Calm - N/A   Clear
8:53 PM 45.0 °F - 37.9 °F 76% 30.14 in 10.0 mi Calm Calm - N/A   Clear
9:53 PM 43.0 °F - 37.9 °F 82% 30.14 in 10.0 mi Calm Calm - N/A   Clear
10:53 PM 42.1 °F - 37.9 °F 85% 30.12 in 10.0 mi Calm Calm - N/A   Clear
11:53 PM 41.0 °F - 37.9 °F 89% 30.12 in 10.0 mi Calm Calm - N/A   Clear